Fort Collins, CO

2:17 AM MST on December 11, 2016 (GMT -0700)
Fort Collins-Loveland Municipal

Weather History for KFNL - March, 2012

Change the Weather History Date:

Monday, March 12, 2012

  Actual Average Record
Temperature  
Mean Temperature 52 °F -  
Max Temperature 66 °F - 73 °F (2007)
Min Temperature 39 °F - 12 °F (2009)
Degree Days  
Heating Degree Days 12    
Month to date heating degree days  
Cooling Degree Days 0    
Month to date cooling degree days  
Growing Degree Days 2 (Base 50)    
Moisture  
Dew Point 17 °F    
Average Humidity 28    
Maximum Humidity 42    
Minimum Humidity 15    
Precipitation  
Precipitation 0.00 in - 0.14 in (1999)
Sea Level Pressure  
Sea Level Pressure 29.83 in    
Wind  
Wind Speed 6 mph (ESE)    
Max Wind Speed 15 mph    
Max Gust Speed 24 mph    
Visibility 10 miles    
Events      
T = Trace of Precipitation, MM = Missing Value Source: NWS Daily Summary

Daily Weather History Graph

Daily Weather History Graph

Search for Another Location

Airport or City:

Trip Planner

Search our weather history database for the weather conditions in past years. The results will help you decide how hot, cold, wet, or windy it might be!

Date:

Astronomy

Mar. 12, 2012 Rise Set
Actual Time 7:15 AM MDT 7:04 PM MDT
Civil Twilight 6:48 AM MDT 7:31 PM MDT
Nautical Twilight 6:16 AM MDT 8:03 PM MDT
Astronomical Twilight 5:44 AM MDT 8:35 PM MDT
Moon No Moon Rise 9:37 AM MDT (3/12)
Length of Visible Light 12h 42m
Length of Day
11h 48m
Waning Gibbous, 75% of the Moon is Illuminated
Mar 12
Waning Gibbous
Mar 14
Last Quarter
Mar 22
New
Mar 30
First Quarter
Apr 6
Full

Hourly Weather History & Observations

Time (MDT) Temp. Windchill Dew Point Humidity Pressure Visibility Wind Dir Wind Speed Gust Speed Precip Events Conditions
12:15 AM 48.2 °F - 12.2 °F 24% 29.67 in 10.0 mi SE 4.6 mph - N/A   Clear
12:35 AM 51.8 °F - 12.2 °F 21% 29.67 in 10.0 mi South 3.5 mph - N/A   Clear
12:55 AM 46.4 °F 42.9 °F 12.2 °F 25% 29.67 in 10.0 mi East 6.9 mph - N/A   Clear
1:15 AM 46.4 °F 41.9 °F 12.2 °F 25% 29.67 in 10.0 mi East 9.2 mph - N/A   Clear
1:35 AM 44.6 °F 41.4 °F 12.2 °F 27% 29.68 in 10.0 mi East 5.8 mph - N/A   Clear
1:55 AM 46.4 °F 44.3 °F 12.2 °F 25% 29.69 in 10.0 mi ENE 4.6 mph - N/A   Clear
2:15 AM 44.6 °F 42.2 °F 14.0 °F 29% 29.69 in 10.0 mi NE 4.6 mph - N/A   Clear
2:55 AM 42.8 °F - 14.0 °F 31% 29.71 in 10.0 mi Calm Calm - N/A   Clear
3:15 AM 42.8 °F 38.6 °F 14.0 °F 31% 29.71 in 10.0 mi East 6.9 mph - N/A   Clear
4:15 AM 42.8 °F 41.1 °F 14.0 °F 31% 29.72 in 10.0 mi SE 3.5 mph - N/A   Clear
4:35 AM 42.8 °F 35.4 °F 14.0 °F 31% 29.72 in 10.0 mi East 15.0 mph - N/A   Clear
5:15 AM 41.0 °F 34.7 °F 14.0 °F 33% 29.75 in 10.0 mi East 10.4 mph - N/A   Clear
5:35 AM 39.2 °F 31.2 °F 14.0 °F 36% 29.76 in 10.0 mi East 13.8 mph - N/A   Clear
5:55 AM 39.2 °F 32.5 °F 12.2 °F 33% 29.78 in 10.0 mi East 10.4 mph - N/A   Clear
6:35 AM 44.6 °F 40.2 °F 15.8 °F 31% 29.80 in 10.0 mi East 8.1 mph - N/A   Clear
6:55 AM 42.8 °F 37.0 °F 14.0 °F 31% 29.82 in 10.0 mi NNE 10.4 mph - N/A   Clear
7:15 AM 39.2 °F 34.2 °F 15.8 °F 39% 29.83 in 10.0 mi East 6.9 mph - N/A   Clear
7:35 AM 42.8 °F 36.2 °F 15.8 °F 34% 29.84 in 10.0 mi East 12.7 mph - N/A   Clear
7:55 AM 42.8 °F 40.1 °F 15.8 °F 34% 29.86 in 10.0 mi NNE 4.6 mph - N/A   Clear
8:15 AM 44.6 °F 39.2 °F 17.6 °F 34% 29.87 in 10.0 mi ESE 10.4 mph - N/A   Clear
8:35 AM 44.6 °F 40.7 °F 17.6 °F 34% 29.88 in 10.0 mi East 6.9 mph - N/A   Clear
8:55 AM 42.8 °F 40.1 °F 21.2 °F 42% 29.89 in 10.0 mi West 4.6 mph - N/A   Clear
9:15 AM 44.6 °F - 21.2 °F 39% 29.89 in 10.0 mi Calm Calm - N/A   Clear
9:35 AM 44.6 °F 42.2 °F 21.2 °F 39% 29.90 in 10.0 mi NE 4.6 mph - N/A   Clear
10:15 AM 48.2 °F - 21.2 °F 34% 29.92 in 10.0 mi East 8.1 mph - N/A   Clear
10:35 AM 53.6 °F - 21.2 °F 28% 29.93 in 10.0 mi ESE 3.5 mph - N/A   Clear
10:55 AM 55.4 °F - 21.2 °F 26% 29.94 in 10.0 mi North 10.4 mph - N/A   Clear
11:15 AM 55.4 °F - 23.0 °F 29% 29.94 in 10.0 mi ENE 5.8 mph - N/A   Clear
11:35 AM 59.0 °F - 21.2 °F 23% 29.94 in 10.0 mi Calm Calm - N/A   Clear
11:55 AM 60.8 °F - 19.4 °F 20% 29.94 in 10.0 mi Calm Calm - N/A   Clear
12:15 PM 60.8 °F - 19.4 °F 20% 29.94 in 10.0 mi SSW 3.5 mph - N/A   Clear
12:35 PM 60.8 °F - 17.6 °F 19% 29.94 in 10.0 mi WSW 3.5 mph - N/A   Partly Cloudy
12:55 PM 62.6 °F - 19.4 °F 19% 29.93 in 10.0 mi SW 8.1 mph - N/A   Partly Cloudy
1:15 PM 64.4 °F - 19.4 °F 18% 29.92 in 10.0 mi SSW 11.5 mph 19.6 mph N/A   Unknown
1:35 PM 64.4 °F - 19.4 °F 18% 29.92 in 10.0 mi South 8.1 mph - N/A   Clear
1:55 PM 66.2 °F - 17.6 °F 15% 29.92 in 10.0 mi SSE 8.1 mph 24.2 mph N/A   Clear
2:15 PM 66.2 °F - 17.6 °F 15% 29.91 in 10.0 mi ESE 4.6 mph 21.9 mph N/A   Clear
2:35 PM 66.2 °F - 17.6 °F 15% 29.90 in 10.0 mi SSE 9.2 mph 16.1 mph N/A   Clear
2:55 PM 66.2 °F - 17.6 °F 15% 29.90 in 10.0 mi SE 9.2 mph 16.1 mph N/A   Clear